When you browse on this site, cookies collect data to enhance your experience and personalize the content and advertising you see.
Visit our Privacy Policy to learn more. By continuing to use the site, you agree to this use of cookies and data.
  • In Österreich
  • Länderverzeichnis
  • Für 7 Tage
  • Wassertemperatur
  • Wetterkarte
  • News
  • Widgets
  • user-avatar
    Anmelden

    Stündliche Wetter Adelaide

    Heute, 26 Februar, Mittwoch

    Zeit Temperatur Niederschläge Wind Luftdruck Luftfeuchtigkeit
    00:00 +19°C° 0 mm 4 m/S 756 mmHg 74%
    01:00 +18°C° 0 mm 4 m/S 755 mmHg 78%
    02:00 +18°C° 0 mm 4 m/S 755 mmHg 81%
    03:00 +18°C° 0 mm 4 m/S 755 mmHg 84%
    04:00 +18°C° 0 mm 4 m/S 755 mmHg 82%
    05:00 +17°C° 0 mm 5 m/S 755 mmHg 79%
    06:00 +17°C° 0 mm 5 m/S 756 mmHg 77%
    07:00 +19°C° 0 mm 5 m/S 756 mmHg 73%
    08:00 +20°C° 0 mm 5 m/S 756 mmHg 69%
    09:00 +20°C° 0 mm 5 m/S 757 mmHg 67%
    10:00 +21°C° 0 mm 5 m/S 757 mmHg 63%
    11:00 +21°C° 0 mm 5 m/S 757 mmHg 59%
    12:00 +22°C° 0 mm 5 m/S 757 mmHg 55%
    13:00 +22°C° 0 mm 5 m/S 757 mmHg 52%
    14:00 +22°C° 0 mm 6 m/S 757 mmHg 50%
    15:00 +21°C° 0 mm 5 m/S 757 mmHg 49%
    16:00 +21°C° 0 mm 5 m/S 757 mmHg 51%
    17:00 +20°C° 0 mm 5 m/S 757 mmHg 52%
    18:00 +19°C° 0 mm 5 m/S 758 mmHg 54%
    19:00 +16°C° 0 mm 5 m/S 758 mmHg 58%
    20:00 +15°C° 0 mm 4 m/S 758 mmHg 63%
    21:00 +14°C° 0 mm 4 m/S 758 mmHg 67%
    22:00 +13°C° 0 mm 3 m/S 758 mmHg 68%
    23:00 +13°C° 0 mm 3 m/S 758 mmHg 69%

    Morgen, 27 Februar, Donnerstag

    Zeit Temperatur Niederschläge Wind Luftdruck Luftfeuchtigkeit
    00:00 +13°C° 0 mm 2 m/S 758 mmHg 70%
    01:00 +13°C° 0 mm 2 m/S 758 mmHg 71%
    02:00 +13°C° 0 mm 2 m/S 757 mmHg 71%
    03:00 +13°C° 0 mm 2 m/S 757 mmHg 72%
    04:00 +13°C° 0 mm 2 m/S 758 mmHg 72%
    05:00 +13°C° 0 mm 2 m/S 758 mmHg 73%
    06:00 +13°C° 0 mm 2 m/S 758 mmHg 73%
    07:00 +15°C° 0 mm 2 m/S 758 mmHg 66%
    08:00 +17°C° 0 mm 3 m/S 759 mmHg 59%
    09:00 +18°C° 0 mm 3 m/S 759 mmHg 52%
    10:00 +19°C° 0 mm 4 m/S 758 mmHg 51%
    11:00 +20°C° 0 mm 4 m/S 758 mmHg 50%
    12:00 +21°C° 0 mm 5 m/S 758 mmHg 49%
    13:00 +21°C° 0 mm 5 m/S 757 mmHg 50%
    14:00 +21°C° 0 mm 5 m/S 757 mmHg 51%
    15:00 +21°C° 0 mm 5 m/S 756 mmHg 52%
    16:00 +20°C° 0 mm 5 m/S 757 mmHg 56%
    17:00 +19°C° 0 mm 4 m/S 757 mmHg 60%
    18:00 +19°C° 0 mm 4 m/S 757 mmHg 65%
    19:00 +18°C° 0 mm 4 m/S 758 mmHg 69%
    20:00 +17°C° 0 mm 4 m/S 758 mmHg 74%
    21:00 +15°C° 0 mm 4 m/S 759 mmHg 78%
    22:00 +15°C° 0 mm 4 m/S 758 mmHg 79%
    23:00 +15°C° 0 mm 4 m/S 758 mmHg 80%

    übermorgen, 28 Februar, Freitag

    Zeit Temperatur Niederschläge Wind Luftdruck Luftfeuchtigkeit
    00:00 +15°C° 0 mm 4 m/S 758 mmHg 81%
    01:00 +15°C° 0 mm 4 m/S 758 mmHg 80%
    02:00 +16°C° 0 mm 3 m/S 758 mmHg 80%
    03:00 +16°C° 0 mm 3 m/S 758 mmHg 80%
    04:00 +16°C° 0 mm 3 m/S 758 mmHg 79%
    05:00 +17°C° 0 mm 3 m/S 759 mmHg 79%
    06:00 +17°C° 0 mm 3 m/S 759 mmHg 78%
    07:00 +18°C° 0 mm 3 m/S 759 mmHg 73%
    08:00 +19°C° 0 mm 3 m/S 760 mmHg 67%
    09:00 +19°C° 0 mm 3 m/S 760 mmHg 61%
    10:00 +20°C° 0 mm 3 m/S 760 mmHg 59%
    11:00 +21°C° 0 mm 3 m/S 760 mmHg 56%
    12:00 +21°C° 0 mm 3 m/S 759 mmHg 54%
    13:00 +22°C° 0 mm 4 m/S 759 mmHg 52%
    14:00 +22°C° 0 mm 4 m/S 758 mmHg 51%
    15:00 +23°C° 0 mm 4 m/S 758 mmHg 49%
    16:00 +22°C° 0 mm 5 m/S 758 mmHg 53%
    17:00 +21°C° 0 mm 5 m/S 758 mmHg 56%
    18:00 +20°C° 0 mm 5 m/S 758 mmHg 59%
    19:00 +19°C° 0 mm 5 m/S 759 mmHg 65%
    20:00 +17°C° 0 mm 4 m/S 759 mmHg 71%
    21:00 +15°C° 0 mm 4 m/S 760 mmHg 77%
    22:00 +15°C° 0 mm 4 m/S 760 mmHg 79%
    23:00 +14°C° 0 mm 3 m/S 759 mmHg 80%

    29 Februar, Samstag

    Zeit Temperatur Niederschläge Wind Luftdruck Luftfeuchtigkeit
    00:00 +14°C° 0 mm 3 m/S 759 mmHg 82%
    01:00 +14°C° 0 mm 3 m/S 759 mmHg 83%
    02:00 +14°C° 0 mm 3 m/S 759 mmHg 83%
    03:00 +14°C° 0 mm 3 m/S 759 mmHg 84%
    04:00 +13°C° 0 mm 3 m/S 759 mmHg 82%
    05:00 +14°C° 0 mm 2 m/S 759 mmHg 80%
    06:00 +14°C° 0 mm 2 m/S 759 mmHg 79%
    07:00 +17°C° 0 mm 2 m/S 759 mmHg 68%
    08:00 +20°C° 0 mm 1 m/S 760 mmHg 57%
    09:00 +23°C° 0 mm 1 m/S 760 mmHg 46%
    10:00 +24°C° 0 mm 1 m/S 759 mmHg 44%
    11:00 +25°C° 0 mm 2 m/S 759 mmHg 42%
    12:00 +26°C° 0 mm 2 m/S 758 mmHg 40%
    13:00 +26°C° 0 mm 3 m/S 757 mmHg 41%
    14:00 +26°C° 0 mm 3 m/S 757 mmHg 41%
    15:00 +27°C° 0 mm 4 m/S 756 mmHg 42%
    16:00 +25°C° 0 mm 4 m/S 756 mmHg 46%
    17:00 +23°C° 0 mm 4 m/S 756 mmHg 51%
    18:00 +22°C° 0 mm 4 m/S 756 mmHg 55%
    19:00 +21°C° 0 mm 4 m/S 757 mmHg 60%
    20:00 +20°C° 0 mm 3 m/S 757 mmHg 65%
    21:00 +18°C° 0 mm 3 m/S 757 mmHg 70%
    22:00 +18°C° 0 mm 3 m/S 757 mmHg 72%
    23:00 +18°C° 0 mm 2 m/S 757 mmHg 73%

    1 März, Sonntag

    Zeit Temperatur Niederschläge Wind Luftdruck Luftfeuchtigkeit
    00:00 +17°C° 0 mm 2 m/S 756 mmHg 75%
    01:00 +17°C° 0 mm 2 m/S 756 mmHg 74%
    02:00 +17°C° 0 mm 2 m/S 755 mmHg 73%
    03:00 +18°C° 0 mm 1 m/S 755 mmHg 72%
    04:00 +19°C° 0 mm 1 m/S 755 mmHg 68%
    05:00 +19°C° 0 mm 1 m/S 755 mmHg 64%
    06:00 +20°C° 0 mm 1 m/S 755 mmHg 60%
    07:00 +22°C° 0 mm 1 m/S 756 mmHg 54%
    08:00 +24°C° 0 mm 1 m/S 756 mmHg 47%
    09:00 +26°C° 0 mm 1 m/S 756 mmHg 41%
    10:00 +26°C° 0 mm 2 m/S 756 mmHg 42%
    11:00 +27°C° 0 mm 3 m/S 756 mmHg 42%
    12:00 +27°C° 0 mm 4 m/S 755 mmHg 43%
    13:00 +26°C° 0 mm 5 m/S 755 mmHg 47%
    14:00 +26°C° 0 mm 6 m/S 755 mmHg 51%
    15:00 +24°C° 0 mm 7 m/S 755 mmHg 54%
    16:00 +22°C° 0.1 mm 7 m/S 756 mmHg 61%
    17:00 +20°C° 0.1 mm 7 m/S 756 mmHg 69%
    18:00 +19°C° 0.1 mm 6 m/S 757 mmHg 76%
    19:00 +17°C° 0.5 mm 6 m/S 757 mmHg 77%
    20:00 +17°C° 0.5 mm 6 m/S 758 mmHg 79%
    21:00 +17°C° 0.5 mm 6 m/S 758 mmHg 81%
    22:00 +17°C° 0 mm 5 m/S 758 mmHg 80%
    23:00 +17°C° 0 mm 5 m/S 758 mmHg 80%

    2 März, Montag

    Zeit Temperatur Niederschläge Wind Luftdruck Luftfeuchtigkeit
    00:00 +17°C° 0 mm 5 m/S 758 mmHg 79%
    01:00 +17°C° 0 mm 5 m/S 758 mmHg 80%
    02:00 +17°C° 0 mm 5 m/S 758 mmHg 80%
    03:00 +16°C° 0 mm 5 m/S 758 mmHg 81%
    04:00 +16°C° 0 mm 5 m/S 758 mmHg 82%
    05:00 +16°C° 0 mm 5 m/S 758 mmHg 82%
    06:00 +16°C° 0 mm 5 m/S 759 mmHg 83%
    07:00 +17°C° 0 mm 5 m/S 759 mmHg 77%
    08:00 +19°C° 0 mm 5 m/S 759 mmHg 72%
    09:00 +20°C° 0 mm 5 m/S 760 mmHg 66%
    10:00 +21°C° 0 mm 6 m/S 760 mmHg 61%
    11:00 +22°C° 0 mm 6 m/S 759 mmHg 56%
    12:00 +23°C° 0 mm 6 m/S 759 mmHg 51%
    13:00 +23°C° 0 mm 6 m/S 759 mmHg 50%
    14:00 +23°C° 0 mm 6 m/S 759 mmHg 49%
    15:00 +23°C° 0 mm 7 m/S 758 mmHg 47%
    16:00 +21°C° 0 mm 7 m/S 758 mmHg 54%
    17:00 +20°C° 0 mm 7 m/S 759 mmHg 61%
    18:00 +17°C° 0 mm 7 m/S 759 mmHg 68%
    19:00 +16°C° 0 mm 7 m/S 760 mmHg 70%
    20:00 +16°C° 0 mm 7 m/S 760 mmHg 73%
    21:00 +15°C° 0 mm 7 m/S 761 mmHg 75%
    22:00 +15°C° 0 mm 6 m/S 761 mmHg 72%
    23:00 +15°C° 0 mm 6 m/S 761 mmHg 70%
    Mehr zeigen